Home > Weather > Worcester > Past weeks

Flag for U.S.A. Weather for the Past 2 Weeks in Worcester, Massachusetts, U.S.A.

Now
39 °F

Sunny.


Feels Like: 37 °F
Forecast: 25 / 43 °F
Wind: 3 mph from East

Location: Worcester Regional Airport

Current Time: Feb 7, 2016 at 6:06:22 PM

Latest Report: Feb 7, 2016 at 4:54 PM


Visibility: 10 mi

Pressure: 30.09 "Hg

Humidity: 50%

Dew point: 22 °F

Location of WorcesterLocation

Historic Weather in Worcester — Graph

°F

Worcester Temperature Yesterday

Maximum temperature yesterday: 33 °F (at 1:54 PM)
Minimum temperature yesterday: 16 °F (at 2:54 AM)
Average temperature yesterday: 25 °F

High & Low Weather Summary for the Past Weeks

 TemperatureHumidityPressure
High57 °F (Feb 1, 10:54 AM)96% (Jan 28, 11:54 PM)30.38 "Hg (Jan 28, 11:54 PM)
Low16 °F (Feb 6, 2:54 AM)22% (Jan 24, 9:54 AM)29.37 "Hg (Jan 29, 12:54 PM)
Average34 °F64%29.97 "Hg
* Reported Jan 23 4:54 PM — Feb 7 4:54 PM, Worcester, Weather by CustomWeather, © 2016

Note: Actual official high and low records may vary slightly from our data, if they occured in-between our weather recording intervals... More about our weather records

Advertising

Worcester Weather History for the Previous 24 Hours

 ConditionsComfort  
Time TempWeatherWind HumidityBarometerVisibility
4:54 PM
Sun, Feb 7
39 °FSunny.3 mph50%30.09 "Hg10 mi
3:54 PM41 °FSunny.7 mph45%30.08 "Hg10 mi
2:54 PM41 °FSunny.8 mph43%30.11 "Hg10 mi
1:54 PM41 °FSunny.9 mph41%30.12 "Hg10 mi
12:54 PM42 °FSunny.3 mph36%30.11 "Hg10 mi
11:54 AM40 °FSunny.6 mph43%30.12 "Hg10 mi
10:54 AM38 °FSunny.6 mph45%30.15 "Hg10 mi
9:54 AM35 °FSunny.6 mph54%30.17 "Hg10 mi
8:54 AM32 °FSunny.7 mph59%30.15 "Hg10 mi
7:54 AM27 °FSunny.8 mph69%30.16 "Hg10 mi
6:54 AM26 °FSunny.9 mph69%30.17 "Hg10 mi
5:54 AM25 °FClear.10 mph72%30.15 "Hg10 mi
4:54 AM27 °FClear.9 mph66%30.16 "Hg10 mi
3:54 AM26 °FClear.10 mph69%30.17 "Hg10 mi
2:54 AM25 °FClear.12 mph72%30.16 "Hg10 mi
1:54 AM25 °FClear.10 mph75%30.18 "Hg10 mi
12:54 AM27 °FClear.12 mph69%30.15 "Hg10 mi
11:54 PM
Sat, Feb 6
27 °FClear.14 mph72%30.18 "Hg10 mi
10:54 PM25 °FClear.12 mph81%30.19 "Hg10 mi
9:54 PM25 °FClear.9 mph81%30.20 "Hg10 mi
8:54 PM26 °FClear.12 mph77%30.20 "Hg10 mi
7:54 PM26 °FClear.9 mph77%30.21 "Hg10 mi
6:54 PM27 °FClear.10 mph78%30.26 "Hg10 mi
Weather by CustomWeather, © 2016

See weather overviewHow to use our weather pages